Jilin-1 GaoFen 07D 01 xing

operational
NORAD ID: 66996 Int'l Des: 2025-292 Owner: CGSTL Country: CN Constellation: jilin-1
LEOCIRCULARRETROGRADESSO

About Jilin-1 GaoFen 07D 01 xing

Description loading...

Live Position

Loading 3D Globe...

Upcoming Passes

Altitude History

Altitude vs Time

uPlot chart will show altitude changes over time

Two-Line Element Set

1 66996U 25292D 25345.87566748 .00001598 00000-0 11811-3 0 9994
2 66996 97.6520 58.4351 0013407 279.6596 80.3115 15.04579315 268
Epoch: Dec 11, 2025 • Age: 53 hours

Current Status

Altitude 555.4 km
Velocity 7.58 km/s
Sub-Earth Point -1.75°S, 47.35°W
Launch Date Dec 10, 2025
Age 4 days
Type other

Technical Details

Classification Payload
Mass 50.00 kg
Dry Mass 50.00 kg
Total Mass 50.00 kg
Length 1.50 m
Diameter 1.00 m
Span 1.50 m
Shape Box
Manufacturer CGSTL
Bus Type JL-1GF07
Phase Status In Orbit
Owner/State CGSTL/CN

Large Constellations

Loading constellations...